DW2213 Weather Reports


Display with metric or nautical units.
time (UTC)temp
F
wind
direction
speed
MPH
gust
MPH
rain 1hr
in
rain 24hr
in
rain mn
in
humidity
%
barometer
mb
20260905153805 90 132 1.0 7.0 0.00 0.00 0.00 68 1015.0
20260905153305 90 132 1.0 5.0 0.00 0.00 0.00 66 1015.0
20260905152805 91 131 2.0 7.0 0.00 0.00 0.00 66 1015.0
20260905152306 91 101 1.0 3.0 0.00 0.00 0.00 65 1015.0
20260905151804 91 135 1.0 8.0 0.00 0.00 0.00 66 1015.0
20260905151305 91 126 2.0 5.0 0.00 0.00 0.00 64 1015.0
20260905150805 91 152 3.0 7.0 0.00 0.00 0.00 64 1015.0
20260905150305 91 128 3.0 7.0 0.00 0.00 0.00 64 1015.1
20260905145804 91 124 2.0 8.0 0.00 0.00 0.00 63 1015.2
20260905144805 91 149 3.0 6.0 0.00 0.00 0.00 62 1015.3
20260905144305 92 144 3.0 7.0 0.00 0.00 0.00 61 1015.3
20260905143805 91 139 4.0 9.0 0.00 0.00 0.00 61 1015.3
20260905143305 92 149 3.0 9.0 0.00 0.00 0.00 58 1015.3
20260905142805 92 147 4.0 9.0 0.00 0.00 0.00 55 1015.4
20260905142306 93 143 2.0 7.0 0.00 0.00 0.00 53 1015.4
20260905141805 93 147 3.0 8.0 0.00 0.00 0.00 52 1015.4
20260905141305 94 141 3.0 7.0 0.00 0.00 0.00 52 1015.5
20260905140804 93 133 3.0 8.0 0.00 0.00 0.00 50 1015.5
20260905140305 94 143 2.0 6.0 0.00 0.00 0.00 50 1015.5
20260905135805 94 155 2.0 7.0 0.00 0.00 0.00 48 1015.5
20260905135306 93 148 2.0 6.0 0.00 0.00 0.00 48 1015.6
20260905134805 93 143 3.0 7.0 0.00 0.00 0.00 47 1015.6
20260905134305 94 142 2.0 6.0 0.00 0.00 0.00 48 1015.7
20260905133804 94 143 4.0 9.0 0.00 0.00 0.00 47 1015.7
20260905133305 94 150 2.0 7.0 0.00 0.00 0.00 49 1015.7
20260905131805 94 124 1.0 3.0 0.00 0.00 0.00 53 1016.0
20260905131305 93 139 1.0 5.0 0.00 0.00 0.00 54 1016.1
20260905130805 93 134 2.0 8.0 0.00 0.00 0.00 54 1016.0
20260905130305 94 149 2.0 7.0 0.00 0.00 0.00 54 1016.0
20260905125804 93 141 2.0 7.0 0.00 0.00 0.00 54 1016.0
20260905125306 93 138 2.0 7.0 0.00 0.00 0.00 55 1016.1
20260905124805 93 97 1.0 5.0 0.00 0.00 0.00 55 1016.1
20260905124305 93 145 3.0 6.0 0.00 0.00 0.00 55 1016.1
20260905123305 93 139 2.0 6.0 0.00 0.00 0.00 55 1016.2
20260905122805 93 138 1.0 6.0 0.00 0.00 0.00 56 1016.1
20260905122307 93 137 1.0 6.0 0.00 0.00 0.00 56 1016.1
20260905121805 93 138 2.0 6.0 0.00 0.00 0.00 57 1016.1
20260905121305 93 144 3.0 6.0 0.00 0.00 0.00 57 1016.1
20260905120305 93 153 2.0 6.0 0.00 0.00 0.00 57 1016.2
20260905115805 93 146 1.0 9.0 0.00 0.00 0.00 57 1016.2
20260905115306 93 143 2.0 8.0 0.00 0.00 0.00 56 1016.3
20260905114804 94 153 2.0 7.0 0.00 0.00 0.00 56 1016.3
20260905113805 93 143 2.0 6.0 0.00 0.00 0.00 56 1016.3
20260905113305 93 155 2.0 7.0 0.00 0.00 0.00 56 1016.3
20260905112805 93 148 1.0 5.0 0.00 0.00 0.00 57 1016.4
20260905111804 93 138 2.0 6.0 0.00 0.00 0.00 57 1016.3
20260905111305 93 147 2.0 6.0 0.00 0.00 0.00 56 1016.3
20260905110304 93 139 1.0 7.0 0.00 0.00 0.00 54 1016.4
20260905105804 94 134 1.0 3.0 0.00 0.00 0.00 54 1016.3
20260905105306 93 145 1.0 5.0 0.00 0.00 0.00 55 1016.3
20260905104804 94 151 1.0 5.0 0.00 0.00 0.00 55 1016.4
20260905104304 94 144 2.0 6.0 0.00 0.00 0.00 52 1016.4
20260905103804 94 138 1.0 5.0 0.00 0.00 0.00 53 1016.4
20260905102804 94 155 1.0 3.0 0.00 0.00 0.00 53 1016.4
20260905102306 93 148 0.0 3.0 0.00 0.00 0.00 53 1016.4
20260905101805 93 150 1.0 3.0 0.00 0.00 0.00 54 1016.4
20260905100804 92 142 1.0 3.0 0.00 0.00 0.00 55 1016.4
20260905100306 92 140 0.0 6.0 0.00 0.00 0.00 55 1016.4
20260905095804 92 161 2.0 5.0 0.00 0.00 0.00 56 1016.3
20260905095306 91 238 0.0 2.0 0.00 0.00 0.00 56 1016.2
20260905094804 91 238 0.0 1.0 0.00 0.00 0.00 55 1016.2
20260905093304 90 264 0.0 2.0 0.00 0.00 0.00 57 1016.1
20260905092804 89 264 1.0 3.0 0.00 0.00 0.00 56 1016.1
20260905092306 89 318 0.0 3.0 0.00 0.00 0.00 58 1016.1
20260905091804 88 242 0.0 2.0 0.00 0.00 0.00 61 1016.1
20260905090804 87 240 0.0 6.0 0.00 0.00 0.00 65 1016.1
20260905090305 86 249 1.0 5.0 0.00 0.00 0.00 66 1016.1
20260905085804 86 254 0.0 3.0 0.00 0.00 0.00 67 1016.1
20260905085306 85 253 1.0 3.0 0.00 0.00 0.00 68 1016.1
20260905084805 84 241 0.0 3.0 0.00 0.00 0.00 69 1016.1
20260905084305 84 237 0.0 3.0 0.00 0.00 0.00 69 1016.0
20260905083804 84 237 0.0 3.0 0.00 0.00 0.00 69 1016.0
20260905083305 83 340 1.0 3.0 0.00 0.00 0.00 69 1015.9
20260905082805 83 251 2.0 5.0 0.00 0.00 0.00 68 1015.8
20260905082307 83 225 0.0 3.0 0.00 0.00 0.00 69 1015.9
20260905081805 82 278 1.0 3.0 0.00 0.00 0.00 70 1015.8
20260905081305 82 222 0.0 5.0 0.00 0.00 0.00 71 1015.8
20260905080805 82 268 0.0 3.0 0.00 0.00 0.00 71 1015.7
20260905080304 81 311 0.0 2.0 0.00 0.00 0.00 73 1015.6
20260905075306 81 217 1.0 3.0 0.00 0.00 0.00 75 1015.6
20260905074805 80 216 0.0 2.0 0.00 0.00 0.00 76 1015.7
20260905072804 78 292 0.0 0.0 0.00 0.00 0.00 81 1015.6
20260905072306 78 297 0.0 0.0 0.00 0.00 0.00 82 1015.5
20260905071304 77 299 0.0 0.0 0.00 0.00 0.00 83 1015.5
20260905070804 77 298 0.0 0.0 0.00 0.00 0.00 83 1015.5
20260905070305 76 297 0.0 0.0 0.00 0.00 0.00 83 1015.5
20260905065805 76 298 0.0 0.0 0.00 0.00 0.00 83 1015.5
20260905065306 76 298 0.0 0.0 0.00 0.00 0.00 83 1015.5
20260905064805 76 298 0.0 0.0 0.00 0.00 0.00 84 1015.5
20260905063805 75 298 0.0 0.0 0.00 0.00 0.00 84 1015.6
20260905063304 75 298 0.0 0.0 0.00 0.00 0.00 84 1015.6
20260905062804 75 298 0.0 0.0 0.00 0.00 0.00 84 1015.6
20260905062306 75 298 0.0 0.0 0.00 0.00 0.00 84 1015.6
20260905061804 75 297 0.0 0.0 0.00 0.00 0.00 84 1015.6
20260905061304 76 297 0.0 0.0 0.00 0.00 0.00 84 1015.6
20260905060804 75 298 0.0 0.0 0.00 0.00 0.00 84 1015.6
20260905060305 75 298 0.0 0.0 0.00 0.00 0.00 84 1015.6
20260905055804 75 297 0.0 0.0 0.00 0.00 0.00 84 1015.5
20260905055306 75 297 0.0 0.0 0.00 0.00 0.00 85 1015.4
20260905054805 75 297 0.0 0.0 0.00 0.00 0.00 85 1015.4
20260905054305 75 297 0.0 0.0 0.00 0.00 0.00 86 1015.4
20260905053805 75 297 0.0 0.0 0.00 0.00 0.00 86 1015.4
20260905053304 75 297 0.0 0.0 0.00 0.00 0.00 87 1015.3
20260905052804 75 297 0.0 0.0 0.00 0.00 0.00 87 1015.2
20260905052306 75 297 0.0 0.0 0.00 0.00 0.00 88 1015.2
20260905051804 74 297 0.0 0.0 0.00 0.00 0.00 89 1015.1
20260905051304 74 296 0.0 0.0 0.00 0.00 0.00 89 1015.1
20260905050804 74 296 0.0 0.0 0.00 0.00 0.00 89 1015.1
20260905050304 74 296 0.0 0.0 0.00 0.00 0.00 89 1015.1
20260905045805 74 296 0.0 0.0 0.00 0.00 0.00 90 1015.1
20260905045306 74 296 0.0 0.0 0.00 0.00 0.00 90 1015.1
20260905044804 74 296 0.0 0.0 0.00 0.00 0.00 90 1015.1
20260905044304 74 296 0.0 0.0 0.00 0.00 0.00 90 1015.2
20260905043304 75 300 0.0 1.0 0.00 0.00 0.00 90 1015.1
20260905042804 75 301 0.0 0.0 0.00 0.00 0.00 90 1015.1
20260905042307 75 300 0.0 0.0 0.00 0.00 0.00 90 1015.1
20260905041804 75 300 0.0 0.0 0.00 0.00 0.00 89 1015.1
20260905041304 75 300 0.0 0.0 0.00 0.00 0.00 90 1015.0
20260905040805 75 300 0.0 1.0 0.00 0.00 0.00 90 1014.9
20260905040305 75 299 0.0 0.0 0.00 0.00 0.00 89 1015.0
20260905035804 75 302 0.0 0.0 0.00 0.00 0.00 89 1015.0
20260905035306 75 302 0.0 0.0 0.00 0.00 0.00 89 1015.0
20260905034805 75 302 0.0 0.0 0.00 0.00 0.00 89 1015.0
20260905034305 75 302 0.0 0.0 0.00 0.00 0.00 89 1015.1
20260905033304 76 302 0.0 0.0 0.00 0.00 0.00 89 1015.0
20260905032804 76 302 0.0 0.0 0.00 0.00 0.00 89 1014.9
20260905031804 76 302 0.0 0.0 0.00 0.00 0.00 89 1015.0
20260905031304 76 302 0.0 0.0 0.00 0.00 0.00 88 1015.0
20260905030805 76 302 0.0 0.0 0.00 0.00 0.00 88 1015.0
20260905025804 76 301 0.0 0.0 0.00 0.00 0.00 88 1014.9
20260905025306 76 302 0.0 0.0 0.00 0.00 0.00 88 1014.9
20260905024805 76 302 0.0 0.0 0.00 0.00 0.00 88 1014.9
20260905024304 76 302 0.0 0.0 0.00 0.00 0.00 88 1014.9
20260905023304 77 300 0.0 0.0 0.00 0.00 0.00 88 1014.8
20260905022804 77 299 0.0 0.0 0.00 0.00 0.00 88 1014.8
20260905021804 77 302 0.0 2.0 0.00 0.00 0.00 88 1014.7
20260905021304 77 306 0.0 0.0 0.00 0.00 0.00 88 1014.7
20260905020805 77 302 0.0 0.0 0.00 0.00 0.00 88 1014.8
20260905020304 77 299 0.0 2.0 0.00 0.00 0.00 88 1014.7
20260905015804 77 307 0.0 3.0 0.00 0.00 0.00 88 1014.7
20260905015306 77 305 0.0 0.0 0.00 0.00 0.00 87 1014.7
20260905014804 77 299 0.0 3.0 0.00 0.00 0.00 87 1014.7
20260905014305 77 299 0.0 2.0 0.00 0.00 0.00 87 1014.6
20260905013305 77 294 0.0 0.0 0.00 0.00 0.00 87 1014.6
20260905012804 77 290 0.0 0.0 0.00 0.00 0.00 87 1014.6
20260905012306 77 289 0.0 0.0 0.00 0.00 0.00 87 1014.6
20260905011804 77 288 0.0 0.0 0.00 0.00 0.00 87 1014.6
20260905011305 77 289 0.0 0.0 0.00 0.00 0.00 87 1014.6
20260905010304 77 290 0.0 0.0 0.00 0.00 0.00 87 1014.6
20260905005804 77 290 0.0 0.0 0.00 0.00 0.00 87 1014.6
20260905005306 77 288 0.0 0.0 0.00 0.00 0.00 87 1014.7
20260905004804 78 289 0.0 0.0 0.00 0.00 0.00 87 1014.8
20260905004305 78 288 0.0 0.0 0.00 0.00 0.00 87 1014.8
20260905003304 78 288 0.0 0.0 0.00 0.00 0.00 87 1014.8
20260905002804 78 288 0.0 0.0 0.00 0.00 0.00 87 1014.8
20260905002306 78 288 0.0 0.0 0.00 0.00 0.00 87 1014.7
20260905001804 78 288 0.0 0.0 0.00 0.00 0.00 87 1014.8
20260905001304 78 288 0.0 0.0 0.00 0.00 0.00 87 1014.8
20260905000305 78 288 0.0 0.0 0.00 0.00 0.00 86 1014.8
20260904235805 78 288 0.0 0.0 0.00 0.00 0.00 86 1014.8
20260904234804 78 288 0.0 0.0 0.00 0.00 0.00 86 1014.9
20260904234304 78 288 0.0 0.0 0.00 0.00 0.00 86 1014.9
20260904233804 79 288 0.0 0.0 0.00 0.00 0.00 86 1014.9
20260904233304 79 291 0.0 0.0 0.00 0.00 0.00 86 1014.9
20260904232804 79 291 0.0 0.0 0.00 0.00 0.00 86 1015.0
20260904232306 79 291 0.0 0.0 0.00 0.00 0.00 86 1015.0
20260904231804 78 292 0.0 0.0 0.00 0.00 0.00 86 1015.0
20260904231304 78 292 0.0 0.0 0.00 0.00 0.00 86 1014.9
20260904230804 79 292 0.0 0.0 0.00 0.00 0.00 86 1014.8
20260904230304 79 292 0.0 0.0 0.00 0.00 0.00 86 1014.8
20260904225805 79 293 0.0 0.0 0.00 0.00 0.00 86 1014.8
20260904225305 79 294 0.0 0.0 0.00 0.00 0.00 86 1014.8
20260904223804 79 293 0.0 0.0 0.00 0.00 0.00 86 1014.7
20260904223304 79 293 0.0 0.0 0.00 0.00 0.00 86 1014.7
20260904222804 79 293 0.0 0.0 0.00 0.00 0.00 86 1014.7
20260904222306 79 294 0.0 0.0 0.00 0.00 0.00 86 1014.6
20260904221804 79 294 0.0 0.0 0.00 0.00 0.00 85 1014.6
20260904220817 79 294 0.0 0.0 0.00 0.00 0.00 86 1014.7
20260904220305 79 294 0.0 0.0 0.00 0.00 0.00 86 1014.6
20260904215804 79 294 0.0 0.0 0.00 0.00 0.00 86 1014.6
20260904215305 79 294 0.0 0.0 0.00 0.00 0.00 85 1014.7
20260904213804 80 294 0.0 0.0 0.00 0.00 0.00 85 1014.7
20260904213304 80 294 0.0 0.0 0.00 0.00 0.00 85 1014.7
20260904212804 80 294 0.0 0.0 0.00 0.00 0.00 85 1014.7
20260904212306 80 294 0.0 0.0 0.00 0.00 0.00 85 1014.7
20260904211804 80 294 0.0 0.0 0.00 0.00 0.00 85 1014.7
20260904211303 80 294 0.0 0.0 0.00 0.00 0.00 84 1014.8
20260904210804 80 294 0.0 0.0 0.00 0.00 0.00 85 1014.8
20260904210304 80 294 0.0 0.0 0.00 0.00 0.00 85 1014.7
20260904205804 80 294 0.0 0.0 0.00 0.00 0.00 84 1014.8
20260904205305 80 294 0.0 0.0 0.00 0.00 0.00 84 1014.8
20260904204804 80 294 0.0 0.0 0.00 0.00 0.00 84 1014.7
20260904203804 81 296 0.0 0.0 0.00 0.00 0.00 83 1014.6
20260904203304 81 337 0.0 0.0 0.00 0.00 0.00 83 1014.6
20260904202804 81 337 0.0 0.0 0.00 0.00 0.00 83 1014.5
20260904201804 81 337 0.0 0.0 0.00 0.00 0.00 83 1014.5
20260904201304 81 336 0.0 0.0 0.00 0.00 0.00 83 1014.5
20260904200804 81 337 0.0 0.0 0.00 0.00 0.00 83 1014.5
20260904200304 81 337 0.0 0.0 0.00 0.00 0.00 83 1014.4
20260904195804 81 337 0.0 0.0 0.00 0.00 0.00 83 1014.4
20260904194803 81 339 0.0 0.0 0.00 0.00 0.00 82 1014.3
20260904194303 82 339 0.0 0.0 0.00 0.00 0.00 82 1014.2
20260904193803 82 338 0.0 0.0 0.00 0.00 0.00 82 1014.2
20260904193304 82 338 0.0 0.0 0.00 0.00 0.00 82 1014.2
20260904192804 82 339 0.0 2.0 0.00 0.00 0.00 81 1014.0
20260904192306 82 338 1.0 3.0 0.00 0.00 0.00 81 1014.0
20260904191303 82 329 0.0 2.0 0.00 0.00 0.00 81 1013.9
20260904190304 82 324 0.0 2.0 0.00 0.00 0.00 80 1013.7
20260904185804 82 333 0.0 3.0 0.00 0.00 0.00 80 1013.7
20260904184304 83 340 0.0 3.0 0.00 0.00 0.00 79 1013.6
20260904183304 83 323 0.0 3.0 0.00 0.00 0.00 79 1013.4
20260904182804 83 334 0.0 0.0 0.00 0.00 0.00 79 1013.5
20260904182306 84 336 0.0 3.0 0.00 0.00 0.00 78 1013.4
20260904180804 84 334 0.0 1.0 0.00 0.00 0.00 78 1013.3
20260904180304 84 330 0.0 0.0 0.00 0.00 0.00 78 1013.2
20260904175305 85 330 0.0 3.0 0.00 0.00 0.00 79 1013.2
20260904174804 85 345 1.0 3.0 0.00 0.00 0.00 78 1013.2
20260904174303 85 308 2.0 5.0 0.00 0.00 0.00 78 1013.1
20260904173803 85 42 1.0 5.0 0.00 0.00 0.00 78 1013.1
20260904173304 85 6 1.0 6.0 0.00 0.00 0.00 78 1013.1
20260904172305 86 16 2.0 6.0 0.00 0.00 0.00 77 1013.1
20260904171804 86 61 1.0 6.0 0.00 0.00 0.00 76 1013.0
20260904171303 87 340 2.0 5.0 0.00 0.00 0.00 75 1013.0
20260904170804 88 23 1.0 5.0 0.00 0.00 0.00 73 1013.0
20260904165805 88 326 1.0 3.0 0.00 0.00 0.00 72 1012.9
20260904164805 90 355 2.0 6.0 0.00 0.00 0.00 69 1012.9
20260904164305 91 355 1.0 6.0 0.00 0.00 0.00 67 1012.8
20260904163805 92 51 1.0 6.0 0.00 0.00 0.00 63 1012.8
20260904163305 94 11 1.0 5.0 0.00 0.00 0.00 55 1012.8
20260904162804 95 98 0.0 2.0 0.00 0.00 0.00 45 1012.7
20260904162306 96 98 0.0 2.0 0.00 0.00 0.00 42 1012.9
20260904161805 96 98 0.0 2.0 0.00 0.00 0.00 41 1012.9
20260904161304 96 98 0.0 3.0 0.00 0.00 0.00 41 1012.8
20260904160805 96 121 0.0 0.0 0.00 0.00 0.00 41 1012.8
20260904160305 96 121 0.0 1.0 0.00 0.00 0.00 42 1012.8
20260904155804 96 121 0.0 2.0 0.00 0.00 0.00 43 1012.8
20260904154805 95 126 1.0 5.0 0.00 0.00 0.00 44 1012.8